Regional Weather Roundup
Issued by NWS

Home | Current Version | Previous Version | Text Only | Print | Product List | Glossary Off
Versions: 1 2 3 4 5 6 7 8 9 10 11 12 13 14 15 16 17 18 19 20 21 22 23 24 25 26 27 28 29 30 31 32 33 34 35 36 37 38 39 40 41 42 43 44 45 46 47 48 49 50

577
ASUS45 KSLC 230710
RWRUT

UTAH REGIONAL WEATHER ROUNDUP
NATIONAL WEATHER SERVICE SALT LAKE CITY UT
100 AM MDT TUE MAY 23 2017

UTZ001>011-023>025-230800-

NORTHERN UTAH

CITY           SKY/WX    TMP DP  RH WIND       PRES   REMARKS
BRIGHAM CITY   MOCLDY    58  46  66 CALM      30.18S
HILL AFB       PTCLDY    57  39  51 SE12      30.20R
LOGAN          PTCLDY    56  46  69 S3        30.19S
OGDEN          MOCLDY    54  42  64 S8        30.18R
SALT LAKE CITY MOCLDY    62  42  47 S7        30.17R
TOOELE VALLEY  MOCLDY    50  43  76 S9        30.18S
WENDOVER       NOT AVBL
HEBER CITY     CLOUDY    50  39  66 E6        30.24S
WEST JORDAN    PTCLDY    58  49  70 SW6       30.20S

$$

UTZ011>015-024>027-230800-

CENTRAL/NORTHEAST UTAH

CITY           SKY/WX    TMP DP  RH WIND       PRES   REMARKS
PROVO AIRPORT  NOT AVBL
MOAB/CANYONLAN PTCLDY    61  38  42 E24G35    30.13R
DELTA          PTCLDY    54  36  50 E5        30.19S
PRICE          CLEAR     52  37  56 NE25      30.26R
ROOSEVELT      CLOUDY    50  34  53 SE9       30.35S
VERNAL         MOCLDY    47  37  68 NE8       30.32F

$$

UTZ013>016-019>022-027-230800-

SOUTHERN UTAH

CITY           SKY/WX    TMP DP  RH WIND       PRES   REMARKS
BRYCE CANYON   PTCLDY    41  26  55 W12       30.33S
CEDAR CITY     CLEAR     46  30  53 CALM      30.22R
MILFORD        CLEAR     50  31  48 CALM      30.20S
ST GEORGE      MOSUNNY   74  30  19 N6        30.04R
HANKSVILLE     CLEAR     59  27  29 NE5       30.17R
BLANDING       CLEAR     53  25  34 NW9       30.23S

$$

REGIONAL REPORTS     COLORADO/ARIZONA

CITY           SKY/WX    TMP DP  RH WIND       PRES   REMARKS
CRAIG, CO      CLEAR     33  30  88 NE3       30.34S
GRAND JUNCTION CLOUDY    55  35  47 NE15      30.26R
RIFLE, CO      PTCLDY    49  34  56 N5        30.27F
MONTROSE, CO   LGT RAIN  50  45  83 W3        30.28R
CORTEZ, CO     CLEAR     43  35  73 E7        30.16S
COLORADO CITY    N/A     63  28  27 NW5       30.18S
PAGE, AZ       CLEAR     70  31  23 W6        30.09R
GRAND CANYON   CLEAR     39  26  59 NE3       30.26S
KINGMAN, AZ    CLEAR     61  27  27 SE3       30.04F
FLAGSTAFF, AZ  CLEAR     41  25  53 CALM      30.27S

$$

REGIONAL REPORTS    NEVADA/IDAHO/WYOMING

CITY           SKY/WX    TMP DP  RH WIND       PRES   REMARKS
LAS VEGAS, NV  CLEAR     80  33  18 W5        29.93R
ELY, NY        CLEAR     43  27  53 S12       30.28R
ELKO, NV       CLEAR     52  42  69 CALM      30.23R
POCATELLO, ID  CLEAR     52  40  63 SE5       30.20R
BURLEY, ID     CLEAR     53  42  66 S5        30.16R
EVANSTON, WY   CLOUDY    45  36  70 E13       30.32S
ROCK SPRINGS,  CLOUDY    40  34  79 S5        30.35S
KEMMERER, WY     N/A     41  34  75 SE5       30.37S

$$




USA.gov is the U.S. government's official web portal to all federal, state and local government web resources and services.